This is the latest recevied weather packets stored in our database for station/object N7BTW-13. If no packets are shown the sender has not sent any weather packets the latest 10 day(s).
| Time | Temp. | Humidity | Pressure | Rain* | Wind** | Luminosity | Snow |
|---|---|---|---|---|---|---|---|
| 1788067810 | 12.22° C | 85% | - | 0 mm | - | - | - |
| 1788067207 | 12.22° C | 84% | - | 0 mm | - | - | - |
| 1788066608 | 12.22° C | 84% | - | 0 mm | - | - | - |
| 1788066009 | 12.22° C | 80% | - | 0 mm | - | - | - |
| 1788065407 | 12.78° C | 79% | - | 0 mm | - | - | - |
| 1788064807 | 12.78° C | 77% | - | 0 mm | - | - | - |
| 1788064208 | 13.33° C | 75% | - | 0 mm | - | - | - |
| 1788063609 | 13.89° C | 74% | - | 0 mm | - | - | - |
| 1788063006 | 14.44° C | 73% | - | 0 mm | - | - | - |
| 1788062406 | 15° C | 71% | - | 0 mm | - | - | - |
| 1788061808 | 15° C | 71% | - | 0 mm | - | - | - |
| 1788061212 | 15.56° C | 68% | - | 0 mm | - | - | - |
| 1788060611 | 16.11° C | 66% | - | 0 mm | - | - | - |
| 1788060007 | 16.67° C | 65% | - | 0 mm | - | - | - |
| 1788059407 | 17.22° C | 62% | - | 0 mm | - | - | - |
| 1788058812 | 17.78° C | 60% | - | 0 mm | - | - | - |
| 1788058207 | 18.89° C | 57% | - | 0 mm | - | - | - |
| 1788057609 | 19.44° C | 56% | - | 0 mm | - | - | - |
| 1788057010 | 18.89° C | 57% | - | 0 mm | - | - | - |
| 1788056406 | 19.44° C | 55% | - | 0 mm | - | - | - |
| 1788055809 | 20° C | 53% | - | 0 mm | - | - | - |
| 1788055209 | 20.56° C | 52% | - | 0 mm | - | - | - |
| 1788054609 | 21.11° C | 51% | - | 0 mm | - | - | - |
| 1788054006 | 21.67° C | 49% | - | 0 mm | - | - | - |
| 1788053407 | 22.22° C | 45% | - | 0 mm | - | - | - |
* Rain latest hour (hover to see other rain measurements)
** Current wind speed in m/s (hover to see current wind gust speed)